UTC  calendar date,Angular Size (deg),Planetocentric sub-spacecraft Longitude (deg),Planetocentric sub-spacecraft Latitude (deg),Planetocentric Subsolar Longitude (deg),Planetocentric Subsolar Latitude (deg),Planetographic Sub-Spacecraft Longitude (deg),Planetographic Sub-Spacecraft  Latitude (deg),Planetographic Solar Longitude (deg),Planetographic Solar Latitude (deg),Sub-Point Radius (km),Observer Distance (km),Phase Angle (deg)
2019-11-03 17:22:00.000000 UTC,16.67119252,159.7483287,18.64495924,-11.37163919,-1.96864969,200.2516713,21.09914319,11.37163919,-2.25100245,70973.18138,422229.6684,159.2627623
2019-11-03 17:32:00.000000 UTC,17.09583725,153.5082728,19.19993732,-17.41646168,-1.96863103,206.4917272,21.7138996,17.41646168,-2.25098113,70943.36286,410100.3061,158.6300669
2019-11-03 17:42:00.000000 UTC,17.54794519,147.2563371,19.7850861,-23.46128416,-1.96861237,212.7436629,22.36088414,23.46128416,-2.2509598,70911.16663,397836.2249,157.9635476
2019-11-03 17:52:00.000000 UTC,18.03040932,140.9912127,20.40331638,-29.50610664,-1.96859371,219.0087873,23.04308764,29.50610664,-2.25093847,70876.32453,385432.0566,157.2600515
2019-11-03 18:02:00.000000 UTC,18.54655193,134.7113782,21.0579463,-35.55092913,-1.96857505,225.2886218,23.76390291,35.55092913,-2.25091714,70838.52817,372882.0787,156.5159968
2019-11-03 18:12:00.000000 UTC,19.10020795,128.4150541,21.75277676,-41.59575161,-1.96855639,231.5849459,24.52719617,41.59575161,-2.25089581,70797.4214,360180.1853,155.7272956
2019-11-03 18:22:00.000000 UTC,19.69582861,122.100143,22.49218449,-47.64057409,-1.96853773,237.899857,25.33739432,47.64057409,-2.25087448,70752.59102,347319.8569,154.8892588
2019-11-03 18:32:00.000000 UTC,20.33861131,115.7641533,23.2812375,-53.68539656,-1.96851908,244.2358467,26.19959241,53.68539656,-2.25085315,70703.55538,334294.1299,153.9964793
2019-11-03 18:42:00.000000 UTC,21.0346638,109.4040995,24.12583963,-59.73021904,-1.96850042,250.5959005,27.11968691,59.73021904,-2.25083181,70649.75025,321095.5639,153.0426857
2019-11-03 18:52:00.000000 UTC,21.79121376,103.0163688,25.03291309,-65.77504152,-1.96848176,256.9836312,28.10454214,65.77504152,-2.25081048,70590.51124,307716.2125,152.020559
2019-11-03 19:02:00.000000 UTC,22.61687903,96.59654267,26.01063082,-71.81986399,-1.9684631,263.4034573,29.1621999,71.81986399,-2.25078915,70525.0519,294147.5956,150.9215003
2019-11-03 19:12:00.000000 UTC,23.52201995,90.1391521,27.06871534,-77.86468646,-1.96844443,269.8608479,30.30214578,77.86468646,-2.25076782,70452.43612,280380.681,149.7353325
2019-11-03 19:22:00.000000 UTC,24.51920421,83.6373362,28.21882667,-83.90950893,-1.96842577,276.3626638,31.53565022,83.90950893,-2.25074649,70371.5437,266405.8779,148.4499161
2019-11-03 19:32:00.000000 UTC,25.62382836,77.08235688,29.47507142,-89.9543314,-1.96840711,282.9176431,32.87620951,89.9543314,-2.25072516,70281.0269,252213.0546,147.0506452
2019-11-03 19:42:00.000000 UTC,26.8549604,70.46289175,30.85467765,-95.99915387,-1.96838845,289.5371083,34.34012085,95.99915387,-2.25070382,70179.25626,237791.5948,145.519781
2019-11-03 19:52:00.000000 UTC,28.23650017,63.76397724,32.37889931,-102.0439763,-1.96836979,296.2360228,35.94723906,102.0439763,-2.25068249,70064.25353,223130.5168,143.8355577
2019-11-03 20:02:00.000000 UTC,29.79880437,56.96537997,34.0742404,-108.0887988,-1.96835113,303.03462,37.72197947,108.0887988,-2.25066116,69933.61076,208218.6964,141.9709668
2019-11-03 20:12:00.000000 UTC,31.581005,50.03899866,35.97412605,-114.1336213,-1.96833247,309.9610013,39.69465448,114.1336213,-2.25063983,69784.39724,193045.2588,139.8920796
2019-11-03 20:22:00.000000 UTC,33.63438426,42.94454682,38.12119463,-120.1784437,-1.96831381,317.0554532,41.90325507,120.1784437,-2.25061849,69613.06434,177600.2484,137.5556933
2019-11-03 20:32:00.000000 UTC,36.02739626,35.62202409,40.57043152,-126.2232662,-1.96829514,324.3779759,44.39580104,126.2232662,-2.25059716,69415.37718,161875.7591,134.9059754
2019-11-03 20:42:00.000000 UTC,38.85331699,27.97780559,43.39335997,-132.2680887,-1.96827648,332.0221944,47.23333256,132.2680887,-2.25057583,69186.44908,145867.8433,131.8695909
2019-11-03 20:52:00.000000 UTC,42.2421903,19.85705953,46.68325302,-138.3129111,-1.96825782,340.1429405,50.49332635,138.3129111,-2.25055449,68921.06401,129579.7535,128.3484965
2019-11-03 21:02:00.000000 UTC,46.37994893,10.98405987,50.56010394,-144.3577336,-1.96823916,349.0159401,54.27216616,144.3577336,-2.25053316,68614.72956,113027.5201,124.209084
2019-11-03 21:12:00.000000 UTC,51.53968995,0.81805999,55.16899723,-150.402556,-1.96822049,359.18194,58.68084771,150.402556,-2.25051182,68266.5009,96249.72222,119.2655143
2019-11-03 21:22:00.000000 UTC,58.13339306,-11.84532795,60.64361338,-156.4473785,-1.96820183,11.84532795,63.80944622,156.4473785,-2.25049049,67885.96337,79325.00576,113.253665
2019-11-03 21:32:00.000000 UTC,66.79566172,-30.14525723,66.89922812,-162.492201,-1.96818317,30.14525723,69.54434976,162.492201,-2.25046915,67509.50683,62404.43583,105.7896472
2019-11-03 21:42:00.000000 UTC,78.50293309,-62.80780391,72.54130504,-168.5370234,-1.96816451,62.80780391,74.6225114,168.5370234,-2.25044782,67234.95602,45773.60881,96.30250054
2019-11-03 21:52:00.000000 UTC,94.64660277,-115.3908272,71.5134424,-174.5818459,-1.96814584,115.3908272,73.70308172,174.5818459,-2.25042648,67279.95005,29978.02552,83.92441712
2019-11-03 22:02:00.000000 UTC,116.4971455,-154.563639,58.80078531,179.3733317,-1.96812718,154.563639,62.09540811,180.6266683,-2.25040515,68009.34275,16086.83722,67.33682145
2019-11-03 22:12:00.000000 UTC,141.1222352,-176.3521456,37.83743367,173.3285092,-1.96810851,176.3521456,41.61262543,186.6714908,-2.25038381,69635.83822,6190.077064,44.85666543
2019-11-03 22:22:00.000000 UTC,145.6261484,168.4902321,12.65508879,167.2836868,-1.96808985,191.5097679,14.40080392,192.7163132,-2.25036248,71246.95607,3588.242,16.69533571
2019-11-03 22:32:00.000000 UTC,122.7657242,155.6473051,-10.93466157,161.2388644,-1.96807119,204.3526949,-12.45840155,198.7611357,-2.25034114,71308.05933,10135.89195,11.61438516
2019-11-03 22:42:00.000000 UTC,99.66072386,143.4523175,-29.11693189,155.1940419,-1.96805252,216.5476825,-32.4947608,204.8059581,-2.25031981,70307.0508,23282.34758,32.19652469
2019-11-03 22:52:00.000000 UTC,82.20486984,131.126597,-42.32964927,149.1492195,-1.96803386,228.8734031,-46.1685308,210.8507806,-2.25029847,69272.71461,39532.17905,46.65950259
2019-11-03 23:02:00.000000 UTC,69.53233369,118.2117228,-51.97544263,143.104397,-1.96801519,241.7882772,-55.63541657,216.895603,-2.25027713,68505.60362,56932.10315,57.04536784
2019-11-03 23:12:00.000000 UTC,60.20255557,104.387334,-59.07920625,137.0595746,-1.96799653,255.612666,-62.35514603,222.9404254,-2.2502558,67990.37497,74615.5579,64.85030461
2019-11-03 23:22:00.000000 UTC,53.14583904,89.44944781,-64.28236979,131.0147521,-1.96797786,270.5505522,-67.16011921,228.9852479,-2.25023446,67658.48212,92207.81124,70.95539005
2019-11-03 23:32:00.000000 UTC,47.65791393,73.37752247,-67.98729139,124.9699297,-1.9679592,286.6224775,-70.5299514,235.0300703,-2.25021312,67451.44633,109546.6962,75.88612365
2019-11-03 23:42:00.000000 UTC,43.28144959,56.43213801,-70.46799907,118.9251072,-1.96794053,303.567862,-72.76546954,241.0748928,-2.25019178,67328.06678,126565.2985,79.97066793
2019-11-03 23:52:00.000000 UTC,39.71451772,39.17440263,-71.94589862,112.8802848,-1.96792187,320.8255974,-74.09020098,247.1197152,-2.25017045,67260.73738,143241.2115,83.42376741
2019-11-04 00:02:00.000000 UTC,36.75267714,22.3091081,-72.63097182,106.8354624,-1.9679032,337.6908919,-74.70260956,253.1645376,-2.25014911,67231.14119,159573.3762,86.39185598
2019-11-04 00:12:00.000000 UTC,34.25375341,6.42218538,-72.72718019,100.7906399,-1.96788453,353.5778146,-74.78853215,259.2093601,-2.25012777,67227.06787,175570.9679,88.97834984
2019-11-04 00:22:00.000000 UTC,32.11632882,-8.18479121,-72.4164722,94.74581749,-1.96786587,8.18479121,-74.51097111,265.2541825,-2.25010643,67240.2966,191247.8487,91.25848782
2019-11-04 00:32:00.000000 UTC,30.26635375,-21.47841258,-71.84396687,88.70099506,-1.9678472,21.47841258,-73.99899302,271.2990049,-2.25008509,67265.22912,206619.7256,93.28841238
2019-11-04 00:42:00.000000 UTC,28.6486132,-33.58382188,-71.11501351,82.65617262,-1.96782853,33.58382188,-73.34604765,277.3438274,-2.25006376,67298.01054,221702.6784,95.11093729
2019-11-04 00:52:00.000000 UTC,27.22115318,-44.68398929,-70.30120529,76.61135019,-1.96780987,44.68398929,-72.61564161,283.3886498,-2.25004242,67335.95978,236512.4047,96.75933283
2019-11-04 01:02:00.000000 UTC,25.95155328,-54.96176743,-69.44913947,70.56652775,-1.9677912,54.96176743,-71.84918984,289.4334723,-2.25002108,67377.19658,251063.85,98.25988201
2019-11-04 01:12:00.000000 UTC,24.81437826,-64.57619171,-68.58825548,64.52170532,-1.96777253,64.57619171,-71.07295935,295.4782947,-2.24999974,67420.39377,265371.0454,99.63365105
2019-11-04 01:22:00.000000 UTC,23.78939967,-73.65717523,-67.73668108,58.47688289,-1.96775387,73.65717523,-70.30322614,301.5231171,-2.2499784,67464.61073,279447.0603,100.8977431
2019-11-04 01:32:00.000000 UTC,22.86033129,-82.30785352,-66.90523765,52.43206046,-1.9677352,82.30785352,-69.54980231,307.5679395,-2.24995706,67509.17974,293304.0147,102.066204
2019-11-04 01:42:00.000000 UTC,22.01391438,-90.60919643,-66.10007525,46.38723803,-1.96771653,90.60919643,-68.81835577,313.612762,-2.24993572,67553.62766,306953.1238,103.1506882
2019-11-04 01:52:00.000000 UTC,21.23924543,-98.62465976,-65.32437572,40.34241561,-1.96769786,98.62465976,-68.11191034,319.6575844,-2.24991438,67597.62105,320404.7573,104.1609559
2019-11-04 02:02:00.000000 UTC,20.52727498,-106.4041416,-64.57944671,34.29759318,-1.9676792,106.4041416,-67.43181074,325.7024068,-2.24989304,67640.92762,333668.5035,105.1052506
2019-11-04 02:12:00.000000 UTC,19.87042886,-113.9871206,-63.86542427,28.25277075,-1.96766053,113.9871206,-66.77834361,331.7472293,-2.2498717,67683.38856,346753.2346,105.990588
2019-11-04 02:22:00.000000 UTC,19.26231866,-121.4050694,-63.18172514,22.20794833,-1.96764186,121.4050694,-66.15113846,337.7920517,-2.24985036,67724.89872,359667.1681,106.8229811
2019-11-04 02:32:00.000000 UTC,18.69751766,-128.683284,-62.52733848,16.1631259,-1.96762319,128.683284,-65.54942736,343.8368741,-2.24982902,67765.39227,372417.9248,107.607617
2019-11-04 02:42:00.000000 UTC,18.17138578,-135.8422673,-61.9010142,10.11830348,-1.96760452,135.8422673,-64.97221337,349.8816965,-2.24980768,67804.8321,385012.5828,108.3489968
2019-11-04 02:52:00.000000 UTC,17.67993141,-142.8987746,-61.30138436,4.07348105,-1.96758585,142.8987746,-64.41837995,355.926519,-2.24978633,67843.20212,397457.7252,109.0510478
2019-11-04 03:02:00.000000 UTC,17.21970142,-149.8666089,-60.72704081,-1.97134137,-1.96756718,149.8666089,-63.88676147,1.97134137,-2.24976499,67880.50156,409759.485,109.7172143
2019-11-04 03:12:00.000000 UTC,16.78769284,-156.7572284,-60.17658428,-8.01616379,-1.96754851,156.7572284,-63.37618841,8.01616379,-2.24974365,67916.7407,421923.5844,110.3505312
2019-11-04 03:22:00.000000 UTC,16.38128142,-163.5802142,-59.64865461,-14.06098621,-1.96752984,163.5802142,-62.88551562,14.06098621,-2.24972231,67951.93771,433955.3707,110.9536845